Погода в Лужны

Россия / Тульская область     53°20′24″N   37°02′08″E
темп.,
°C
ветер,
м/с
пор.,
м/с
влажн.,
%
обл.,
%
осадки,
мм/ч
давл.,
гПа
погр.,
м
12 мая, ср
ср1200:00+7вюв35875 0.0 102590
03:00+5в34900 0.0 102654
06:00+6всв37895 0.0 1026183
09:00+11всв466748 0.0 1024673
12:00+13в5661100 0.1 10221630
15:00+9св3493100 1.8 1020223
18:00+9вюв238663 1.1 1018357
21:00+7вюв47943 1.1 1018142
13 мая, чт
чт1300:00+7в513945 0.0 1018295
03:00+8в61591100 0.1 1017435
06:00+8вюв61494100 0.1 1016499
09:00+9юв51097100 1.7 1017529
12:00+11юв61090100 2.1 1016629
15:00+12ююв698436 2.7 1015867
18:00+14ююв4777100 0.1 1014868
21:00+10ююв3693100 0.1 101589
14 мая, пт
пт1400:00+9юв3595100 0.0 101680
03:00+9юв359599 0.0 101671
06:00+10вюв3793100 0.0 1016164
09:00+15вюв5986100 0.6 1015458
12:00+20юв797382 0.1 10131075
15:00+21ююв71170100 0.7 10121367
18:00+20ююв61278100 0.8 1011512
21:00+16ююв41292100 3.6 1011247
15 мая, сб
сб1500:00+15ююв41293100 0.0 1011253
03:00+14в51092100 4.9 1011245
06:00+15юв51192100 0.4 1009255
09:00+16ююв61192100 2.4 1010552
12:00+19ююз478335 0.8 1009579
15:00+21ююз79695 1.9 10101386
18:00+19юз5878100 1.0 1010809
21:00+14ююз3692100 1.5 1011114
16 мая, вс
вс1600:00+12юз349465 0.0 101260
03:00+11юз229467 0.0 101331
06:00+12юз2291100 0.0 101365
09:00+17юз34760 0.0 1014564
12:00+20юз346349 0.0 10141279
15:00+21юз345790 0.1 10131735
18:00+19ююз2264100 0.0 101322
21:00+16всв116973 0.0 101311